Simultaneous Nadir Overpasses (SNOs) Predictions

Prediction of SNOs between NOAA-19 and TERRA Satellite Orbit:

Table of predicted SNOs for the next 14.0 days since TLE Epoch: 11/23/2019
Index Date (NOAA-19) Time (NOAA-19) Lat,Lon (NOAA-19) SZA (NOAA-19 ) Date (TERRA) Time (TERRA) Lat,Lon (TERRA) SZA (TERRA ) Distance(km) Time Diff (sec)
1 11/24/2019 05:08:35 -78.98, -52.48 79.38 11/24/2019 05:08:59 -78.96, -52.35 79.37 3.14 24
2 11/24/2019 05:59:32 78.94, 115.05 100.63 11/24/2019 05:58:26 78.92, 115.04 100.58 2.58 66
3 11/26/2019 10:41:55 78.99, 44.19 101.06 11/26/2019 10:42:43 78.99, 44.36 101.09 3.61 48
4 11/26/2019 11:32:56 -78.95,-148.26 78.95 11/26/2019 11:32:11 -78.96,-148.18 78.95 1.88 45
5 11/28/2019 16:15:17 -78.98, 141.01 78.55 11/28/2019 16:16:28 -79.01, 141.03 78.50 3.31 71
6 11/28/2019 17:06:16 78.98, -51.72 101.46 11/28/2019 17:05:55 78.96, -51.60 101.45 3.11 21
7 11/30/2019 22:39:39 -78.98, 44.95 78.18 11/30/2019 22:39:42 -78.96, 44.96 78.20 2.55 3
8 12/03/2019 04:13:00 78.98, 141.74 102.15 12/03/2019 04:13:27 79.00, 141.76 102.18 2.56 27
9 12/03/2019 05:04:00 -78.96, -50.86 77.85 12/03/2019 05:02:55 -78.98, -50.75 77.85 2.96 65
10 12/05/2019 09:46:22 -78.99,-121.62 77.56 12/05/2019 09:47:15 -79.01,-121.66 77.53 1.76 53




NCC Satellite Simultaneous Nadir Overpasses (SNOs) Prediction Service
